Location: Ar Ranvel
(48.3000°N, 4.8833°W)
Time: 03:04:16
(UTC+00:00)

Cosmos 2322 Rocket - Pass Details

Date: 23 October 2021
Orbit: 832 x 851 km, 71.0° (Epoch: 01 December)

Event Time Altitude Azimuth Distance (km) Brightness Sun altitude
Exits shadow 03:29:09 35° 19° (NNE) 1,333 3.4 -33.8°
Maximum altitude 03:30:34 41° 53° (NE) 1,204 3.3 -33.6°
Drops below altitude 10° 03:35:54 10° 123° (ESE) 2,466 5.0 -32.7°
Sets 03:38:29 0° 131° (SE) 3,400 5.7 -32.3°
